Wind_Speed
22 23 23 23 23 24 24 24 25 25 25 25 24 24 23 23 22 21 19 19 19 25 29 29 31 30 29 28 27 25 24 24 23 22 21 20 19 18 17 15 13 11 8
22 23 23 24 24 25 25 26 26 26 26 26 25 25 25 25 24 23 22 21 20 22 29 32 32 33 32 30 29 29 28 27 26 25 24 23 22 21 19 17 15 13 11
22 24 24 24 24 25 26 26 27 27 27 27 26 27 27 26 26 25 25 24 23 23 26 30 33 33 34 34 33 31 31 29 28 28 27 26 24 23 22 20 18 16 14
23 23 24 24 24 25 25 26 27 27 27 27 27 27 27 27 27 27 27 26 26 25 26 29 32 34 35 36 36 35 34 32 31 30 30 28 27 26 24 23 21 19 17
23 24 24 24 24 25 25 25 26 26 27 27 27 27 28 28 28 28 28 28 28 28 27 29 33 35 37 37 38 38 37 36 34 33 32 31 30 28 27 25 23 22 20
23 24 24 24 25 25 25 25 26 26 27 27 28 28 28 29 29 29 30 30 30 30 30 30 32 35 37 39 39 39 40 39 37 36 34 33 32 31 30 28 26 24 22
23 23 24 24 24 25 25 25 25 26 26 26 28 28 29 29 30 30 31 31 31 32 32 32 34 34 36 39 41 41 41 41 40 39 37 35 34 33 32 30 29 27 25
23 23 23 23 24 24 24 25 25 25 25 26 27 27 29 29 30 30 31 32 32 33 34 34 34 36 36 38 39 41 42 42 43 42 40 38 36 34 33 32 30 29 27
23 23 23 23 23 24 24 24 25 25 26 26 26 27 28 30 30 31 32 33 33 34 34 35 35 36 36 37 38 40 42 44 44 44 42 41 39 37 35 33 32 30 29
22 22 22 22 23 23 24 24 25 26 26 27 27 28 29 29 31 32 33 34 35 35 36 37 37 37 37 37 39 40 41 43 44 45 44 43 41 39 38 36 34 32 30
20 20 21 21 22 23 24 25 26 27 27 28 29 29 30 31 31 33 34 35 35 36 37 38 38 38 39 39 39 39 40 42 44 45 45 45 44 41 39 38 36 34 31
20 20 21 21 22 23 24 26 27 28 29 30 31 32 33 33 34 34 35 36 37 38 38 39 40 40 40 40 40 41 41 42 43 45 46 46 44 43 41 40 38 36 33
22 22 23 23 24 25 26 27 28 30 31 32 33 34 35 36 36 37 37 38 39 39 40 40 40 41 42 42 41 43 43 43 43 45 47 47 45 44 42 41 40 38 36
24 25 26 26 27 27 28 29 30 31 32 34 35 36 37 38 39 39 39 40 41 42 42 42 42 42 42 43 42 42 43 45 45 45 48 48 47 46 44 43 42 41 39
26 26 28 29 30 31 31 32 32 33 34 34 36 37 38 40 40 41 41 42 43 44 44 44 44 44 44 44 44 43 43 44 46 46 48 49 48 47 46 45 43 42 40
28 29 30 31 33 33 34 34 34 34 34 35 35 36 38 40 40 41 42 43 44 45 45 46 46 46 46 45 46 44 44 44 46 47 48 49 49 49 48 47 45 43 41
31 31 33 34 35 36 36 36 36 35 35 36 36 36 37 39 40 41 42 43 44 45 46 47 48 47 47 47 46 46 45 45 45 47 48 47 48 49 49 48 47 45 43
33 35 36 37 38 38 38 38 38 37 37 37 37 37 37 38 39 40 41 43 44 45 46 46 48 48 47 47 47 47 46 46 45 45 46 47 48 49 50 49 47 46 44
36 38 39 40 40 40 40 40 39 39 38 37 37 37 37 38 39 40 40 42 43 44 46 46 47 48 48 48 48 46 46 46 47 46 46 47 48 49 50 50 49 47 45
39 40 42 42 42 43 42 41 40 39 38 37 37 36 36 37 37 39 40 41 42 44 45 46 48 49 49 49 49 48 46 47 47 47 46 46 47 48 49 50 49 48 46
41 43 44 44 44 44 43 42 41 39 38 37 36 36 36 36 37 38 39 40 42 43 44 46 47 49 50 50 50 50 48 47 47 47 47 46 46 47 48 50 50 49 47
44 45 46 46 46 45 44 42 40 38 37 36 36 35 35 35 36 37 38 40 41 43 44 46 47 49 50 51 52 52 51 49 47 47 47 46 46 47 49 49 50 49 48
46 47 47 47 46 45 43 41 39 37 36 35 35 35 35 35 36 36 37 39 41 42 44 46 47 49 50 51 52 53 53 50 48 47 47 46 46 47 48 50 50 50 49
48 49 48 47 45 43 41 39 37 35 34 34 34 34 35 35 36 36 37 38 40 41 43 46 47 49 52 53 53 53 53 52 51 49 47 46 46 46 47 49 51 51 51
50 50 48 46 43 41 40 38 36 34 33 33 33 34 34 33 34 35 36 36 38 40 43 45 47 49 52 53 54 54 54 53 52 50 48 46 45 45 46 47 49 50 50
50 49 47 44 42 40 38 37 35 33 33 33 33 33 32 31 32 33 34 36 37 39 42 44 46 49 51 54 56 56 56 56 54 52 50 47 45 44 45 46 47 48 49
Wind_Direction
292 289 287 286 284 283 282 280 279 278 277 277 275 274 272 270 268 266 267 262 249 233 226 224 224 222 220 217 217 217 215 213 212 212 212 211 211 211 212 212 213 212 209
290 289 288 286 285 283 281 279 277 275 274 273 272 271 269 268 264 261 260 259 253 243 232 228 225 224 222 220 218 218 218 217 216 215 214 215 216 217 217 217 218 218 216
291 289 288 287 285 282 279 277 276 275 274 272 270 268 268 267 263 259 257 255 253 247 238 231 228 227 225 223 221 219 219 219 219 218 217 218 219 220 222 222 222 222 222
290 289 288 288 285 283 281 279 277 275 273 272 271 268 267 266 263 259 256 253 251 247 242 235 230 230 229 227 224 223 221 221 221 220 220 220 221 222 223 224 225 226 226
291 290 290 288 286 284 282 280 278 274 272 271 269 267 266 264 261 258 256 252 249 246 245 241 236 233 231 229 227 225 224 223 222 222 222 222 223 224 225 226 227 228 229
294 292 290 289 287 285 283 281 279 275 272 269 267 266 264 262 260 259 255 252 249 246 245 243 239 236 233 232 230 228 226 225 223 222 223 224 224 225 226 227 228 229 230
298 296 294 292 289 287 285 283 280 277 273 270 267 265 263 261 259 257 254 252 250 247 244 242 240 239 237 234 232 230 228 226 224 223 223 224 225 226 227 228 228 229 230
303 301 298 295 292 290 288 285 282 280 277 272 269 265 262 260 258 256 254 252 249 247 244 241 240 240 239 236 233 231 229 228 227 225 224 224 225 226 227 227 227 229 231
306 304 302 299 297 294 291 287 284 281 279 275 271 268 264 261 258 255 254 252 248 247 244 242 241 239 239 237 233 232 231 229 228 227 226 225 225 225 226 226 227 229 230
309 307 305 303 301 299 296 292 288 284 281 278 274 270 266 262 258 255 253 252 249 246 243 242 240 240 239 238 234 231 229 229 228 228 227 225 224 225 226 226 227 229 230
313 312 310 307 305 303 300 296 292 288 284 280 277 273 269 265 261 257 254 252 250 247 244 242 240 240 239 238 234 231 231 229 228 227 227 226 225 226 226 226 227 228 230
315 314 313 311 309 306 303 300 296 291 287 283 279 275 271 266 262 258 255 252 250 248 245 244 241 240 239 237 235 232 232 231 229 228 227 226 225 225 225 225 225 227 230
315 314 313 312 310 308 306 303 299 295 290 285 280 276 272 268 264 260 255 252 250 248 245 243 241 240 239 238 236 234 232 231 229 228 227 226 224 224 225 225 225 226 229
315 314 314 313 311 310 308 305 301 296 292 287 282 278 273 269 265 261 256 251 248 247 246 243 242 240 238 236 235 234 233 231 230 229 227 226 225 224 224 225 226 226 227
315 315 314 313 312 311 309 306 302 298 294 289 284 279 274 270 266 262 257 253 249 246 245 244 241 240 238 235 234 234 232 231 231 230 228 226 225 225 224 225 226 226 227
316 315 314 313 312 311 309 306 303 299 295 290 285 280 275 270 266 262 258 254 250 246 244 243 241 239 238 236 235 234 233 231 231 230 229 226 226 225 224 225 226 227 227
317 315 314 313 312 311 309 306 303 299 295 291 286 281 276 271 267 262 258 254 250 247 244 242 241 239 238 237 236 235 234 232 231 230 228 227 226 226 224 225 226 227 227
317 316 315 313 312 310 308 306 303 299 295 291 287 282 276 271 267 263 258 254 251 247 244 241 240 239 238 236 236 235 233 232 231 229 228 227 227 226 225 224 226 226 227
318 317 315 314 312 310 307 305 303 299 295 291 287 282 277 272 267 263 259 255 251 248 244 241 239 238 238 236 235 234 233 232 232 230 228 227 227 226 225 224 225 225 226
319 317 315 313 311 309 307 305 303 299 295 291 288 283 278 272 268 263 259 255 251 248 245 241 239 238 237 236 234 233 232 231 231 231 229 228 227 227 224 224 223 224 224
319 317 315 313 311 309 307 305 303 299 296 292 289 284 279 273 268 264 260 255 252 248 245 242 239 238 237 236 235 232 231 230 230 231 231 229 228 227 223 222 221 222 222
319 318 316 313 311 308 307 305 303 299 296 293 290 286 281 276 270 266 261 257 252 248 245 242 239 237 237 236 235 233 231 229 229 231 231 229 228 226 224 222 220 220 219
320 319 317 315 311 308 306 305 302 299 296 294 291 288 284 279 274 268 263 258 253 249 246 242 239 237 236 235 235 234 231 229 228 229 230 228 227 225 224 222 219 217 217
321 320 318 316 312 309 307 305 303 300 297 294 293 290 286 281 276 270 265 260 254 250 246 243 240 237 235 234 233 233 231 228 227 228 230 229 227 225 222 221 220 218 216
322 320 319 316 313 309 307 306 304 301 297 295 294 292 287 283 278 272 267 262 256 251 247 244 241 238 236 233 232 231 230 228 226 227 228 229 227 226 223 221 220 219 218
323 322 319 316 313 310 309 306 304 302 299 297 295 292 288 283 279 275 269 263 258 253 249 245 242 239 236 233 231 229 228 226 225 225 226 227 227 228 224 223 221 218 216
Height
5873 5872 5871 5870 5869 5868 5868 5867 5867 5867 5866 5866 5866 5866 5867 5867 5868 5868 5869 5869 5870 5872 5875 5878 5881 5884 5887 5890 5893 5896 5898 5901 5904 5906 5908 5911 5913 5914 5916 5918 5920 5921 5922
5868 5866 5865 5864 5863 5862 5862 5861 5861 5860 5860 5860 5860 5860 5861 5861 5862 5863 5863 5864 5865 5867 5869 5872 5875 5878 5882 5885 5888 5891 5894 5897 5900 5902 5905 5908 5910 5912 5914 5916 5918 5920 5921
5862 5860 5859 5858 5857 5856 5855 5854 5854 5854 5854 5854 5854 5854 5854 5855 5856 5857 5858 5858 5860 5861 5863 5866 5869 5872 5876 5879 5882 5885 5889 5892 5895 5898 5901 5904 5907 5909 5911 5914 5916 5918 5920
5857 5855 5853 5852 5851 5849 5848 5848 5847 5847 5847 5847 5847 5847 5848 5848 5849 5850 5851 5852 5854 5855 5857 5859 5863 5866 5869 5873 5876 5879 5883 5886 5890 5894 5897 5900 5903 5906 5908 5910 5913 5915 5917
5851 5849 5847 5845 5844 5843 5842 5841 5840 5840 5839 5840 5840 5840 5841 5841 5842 5843 5844 5846 5847 5849 5851 5853 5856 5858 5862 5866 5869 5873 5876 5880 5884 5888 5891 5895 5898 5901 5904 5907 5910 5912 5914
5845 5843 5841 5839 5837 5836 5835 5834 5833 5833 5832 5832 5833 5833 5834 5834 5835 5836 5837 5838 5840 5842 5844 5846 5848 5851 5854 5858 5862 5865 5869 5873 5877 5881 5885 5889 5893 5896 5900 5903 5906 5908 5911
5838 5836 5834 5833 5831 5830 5828 5827 5826 5826 5825 5825 5825 5826 5826 5827 5827 5828 5829 5831 5833 5834 5836 5838 5841 5843 5846 5850 5854 5858 5862 5866 5870 5875 5879 5883 5887 5891 5894 5898 5901 5904 5907
5832 5830 5828 5826 5824 5823 5822 5820 5819 5818 5818 5818 5818 5818 5819 5820 5820 5821 5822 5823 5824 5826 5828 5830 5833 5836 5838 5841 5845 5849 5853 5858 5862 5867 5872 5876 5881 5885 5889 5892 5896 5899 5902
5826 5824 5822 5820 5818 5816 5815 5814 5813 5811 5811 5811 5810 5810 5811 5811 5812 5813 5813 5814 5816 5818 5820 5822 5825 5827 5830 5833 5836 5841 5845 5849 5854 5859 5864 5869 5873 5878 5883 5887 5890 5894 5897
5821 5819 5816 5814 5812 5810 5808 5807 5806 5804 5804 5803 5803 5803 5803 5803 5803 5804 5805 5806 5807 5809 5811 5814 5816 5819 5822 5824 5828 5832 5836 5840 5845 5851 5856 5861 5866 5871 5875 5880 5884 5888 5892
5817 5814 5812 5809 5807 5804 5802 5800 5799 5797 5796 5795 5794 5794 5794 5794 5794 5795 5796 5797 5799 5800 5802 5805 5808 5810 5813 5816 5820 5824 5827 5832 5836 5841 5847 5852 5858 5863 5868 5873 5878 5882 5885
5812 5810 5807 5804 5801 5799 5796 5794 5791 5790 5788 5786 5785 5785 5785 5785 5785 5786 5787 5788 5789 5791 5793 5795 5798 5801 5804 5807 5811 5815 5819 5823 5827 5833 5838 5843 5849 5855 5860 5865 5870 5875 5879
5807 5804 5801 5798 5795 5793 5790 5787 5784 5781 5779 5777 5776 5775 5774 5774 5775 5776 5777 5778 5779 5781 5783 5785 5788 5791 5794 5797 5801 5805 5809 5814 5818 5823 5829 5834 5840 5846 5851 5857 5862 5867 5872
5801 5798 5795 5792 5788 5785 5782 5779 5776 5773 5770 5768 5766 5764 5763 5763 5763 5764 5765 5767 5769 5770 5772 5775 5777 5781 5784 5787 5791 5795 5799 5804 5809 5814 5819 5825 5831 5837 5843 5848 5854 5859 5864
5796 5792 5788 5784 5781 5777 5773 5770 5766 5763 5760 5757 5755 5753 5752 5751 5751 5752 5753 5755 5757 5759 5761 5763 5767 5770 5773 5777 5781 5785 5789 5794 5799 5804 5809 5815 5822 5828 5834 5840 5846 5851 5856
5789 5785 5781 5777 5772 5768 5764 5760 5756 5753 5750 5747 5744 5742 5740 5739 5739 5739 5740 5742 5744 5747 5750 5752 5755 5758 5762 5767 5771 5775 5779 5784 5789 5794 5799 5806 5812 5818 5825 5831 5837 5843 5848
5782 5777 5773 5768 5763 5759 5754 5750 5746 5742 5739 5735 5732 5730 5728 5727 5726 5726 5727 5729 5731 5734 5737 5740 5743 5747 5751 5756 5760 5764 5769 5774 5779 5784 5790 5795 5802 5808 5815 5822 5828 5834 5840
5774 5769 5764 5759 5754 5749 5744 5739 5735 5731 5727 5723 5720 5718 5716 5714 5713 5713 5714 5715 5718 5720 5724 5728 5731 5735 5739 5744 5749 5754 5759 5763 5768 5774 5779 5785 5792 5798 5805 5812 5818 5825 5831
5766 5760 5755 5749 5744 5738 5733 5728 5723 5719 5714 5711 5708 5705 5703 5701 5701 5700 5701 5702 5705 5707 5711 5715 5719 5723 5728 5733 5738 5743 5748 5754 5758 5763 5769 5775 5781 5788 5794 5802 5809 5815 5822
5757 5751 5745 5739 5733 5727 5721 5716 5711 5706 5702 5698 5695 5692 5690 5689 5688 5688 5688 5690 5692 5694 5698 5702 5706 5710 5715 5720 5726 5732 5738 5744 5748 5753 5759 5765 5771 5777 5784 5791 5799 5806 5812
5748 5742 5735 5729 5722 5716 5710 5704 5699 5694 5689 5685 5682 5680 5678 5676 5675 5675 5676 5677 5679 5682 5685 5689 5694 5698 5703 5708 5714 5721 5727 5733 5738 5743 5749 5755 5761 5767 5773 5780 5788 5795 5803
5739 5732 5725 5718 5711 5704 5698 5692 5686 5682 5677 5673 5670 5667 5665 5664 5663 5662 5663 5664 5666 5668 5672 5676 5680 5685 5691 5696 5702 5708 5715 5722 5729 5735 5739 5745 5751 5757 5764 5771 5778 5785 5793
5728 5721 5713 5706 5699 5692 5686 5680 5674 5670 5665 5661 5658 5655 5653 5651 5650 5649 5650 5651 5652 5655 5658 5662 5667 5672 5678 5684 5690 5696 5703 5710 5718 5724 5729 5735 5741 5747 5754 5760 5768 5775 5783
5718 5710 5702 5694 5687 5680 5674 5668 5663 5659 5654 5650 5647 5644 5641 5638 5637 5636 5636 5637 5639 5641 5644 5648 5654 5659 5663 5669 5676 5683 5690 5699 5707 5713 5719 5725 5731 5738 5744 5750 5758 5765 5773
5707 5698 5690 5683 5676 5669 5663 5658 5652 5648 5644 5640 5636 5633 5629 5627 5625 5623 5623 5624 5626 5627 5630 5634 5639 5644 5650 5657 5663 5671 5679 5687 5695 5702 5709 5715 5722 5728 5734 5741 5748 5755 5763
5696 5687 5679 5671 5665 5658 5652 5647 5642 5638 5633 5629 5625 5621 5618 5616 5613 5611 5611 5611 5612 5614 5616 5620 5625 5630 5636 5643 5650 5658 5666 5674 5683 5691 5699 5706 5712 5718 5725 5731 5738 5746 5753